Temperature
21 21 20 20 20 20 20 19 19 19 19 19 19 18 18 18 18 17 17 17 17 17 17 17 17 17 17 17 17 17 17 17 17 17 17 16 16 16 16 16 16 16 16
21 21 20 20 20 20 20 19 19 19 19 19 19 18 18 18 18 17 17 17 17 17 17 16 17 17 17 17 17 17 17 17 17 16 16 16 16 16 16 16 16 15 15
21 20 20 20 20 20 19 19 19 19 19 19 18 18 18 18 18 17 17 17 17 17 16 16 16 16 16 16 16 16 16 16 16 16 16 16 16 16 16 16 15 15 15
21 20 20 20 20 19 19 19 19 19 19 18 18 18 18 18 17 17 17 17 17 16 16 16 16 16 16 16 16 16 16 16 16 16 16 16 16 16 16 15 15 15 15
21 21 20 20 20 19 19 19 19 19 18 18 18 18 18 18 17 17 17 16 16 16 16 16 16 16 16 16 16 16 16 16 16 16 15 15 15 15 15 15 15 15 15
21 21 20 20 19 19 19 19 18 18 18 18 18 18 18 17 17 17 17 16 16 16 16 16 16 16 16 16 16 15 15 15 15 15 15 15 15 15 15 15 15 15 15
20 20 20 19 19 19 18 18 18 18 18 18 18 17 17 17 17 17 17 16 16 16 16 16 15 15 16 16 15 15 15 15 15 15 15 15 15 15 15 14 14 14 14
20 20 19 19 19 18 18 18 18 17 17 17 17 17 17 17 17 17 16 16 16 16 16 16 15 15 15 15 15 15 15 15 15 15 15 15 15 15 14 14 14 14 14
20 19 19 19 18 18 18 17 17 17 17 17 17 17 17 17 17 16 16 16 16 15 15 15 15 15 15 15 15 15 15 15 14 14 14 14 15 14 14 14 14 14 14
19 19 19 18 18 18 18 17 17 17 17 16 16 16 16 16 16 16 16 16 15 15 15 15 15 15 15 15 15 15 15 15 14 14 14 14 14 14 14 14 14 13 13
18 18 18 18 17 17 17 17 17 16 16 16 16 16 16 16 16 16 15 15 15 15 15 15 15 15 15 15 15 15 14 14 14 14 14 14 14 14 14 13 13 13 13
18 17 17 17 17 17 17 16 16 16 16 16 15 15 15 15 15 15 15 15 15 15 15 15 15 14 14 14 14 14 14 14 14 14 14 14 14 13 13 13 13 13 13
17 17 17 17 16 16 16 16 16 16 15 15 15 15 15 15 15 15 15 15 15 15 15 15 14 14 14 14 14 14 14 14 13 13 13 13 13 13 13 13 13 13 13
17 16 16 16 16 16 15 15 15 15 15 15 15 15 15 15 15 15 15 15 14 14 14 14 14 14 14 14 14 14 13 13 13 13 13 13 13 13 13 13 12 12 12
16 16 16 16 16 15 15 15 15 15 15 15 15 15 15 15 15 15 14 14 14 14 14 14 14 14 13 13 13 13 13 13 13 13 12 12 12 12 12 12 12 12 12
16 16 16 15 15 15 15 15 15 15 14 14 14 14 14 14 14 14 14 14 14 14 13 13 13 13 13 13 13 13 13 13 12 12 12 12 12 12 12 12 12 12 12
16 15 15 15 15 15 15 14 14 14 14 14 14 14 14 14 14 14 14 14 14 13 13 13 13 13 13 12 12 12 12 12 12 12 11 11 11 11 11 11 11 11 11
15 15 15 15 15 14 14 14 14 14 14 14 14 14 14 14 14 13 13 13 13 13 13 13 13 13 12 12 12 12 12 11 11 11 11 11 11 11 11 10 10 10 10
15 15 15 15 14 14 14 14 14 14 14 14 14 14 14 13 13 13 13 13 13 13 13 12 12 12 12 12 11 11 11 11 11 10 10 10 10 10 10 10 10 10 10
15 15 14 14 14 14 14 14 14 14 14 14 14 14 14 13 13 13 13 13 12 12 12 12 12 12 11 11 11 11 10 10 10 10 10 10 9 9 9 9 9 9 9
14 14 14 14 14 14 14 14 14 14 14 14 14 14 13 13 13 13 13 12 12 12 12 12 11 11 11 10 10 10 10 10 10 9 9 9 9 9 9 9 9 9 9
14 14 14 14 14 14 14 14 14 14 14 14 13 13 13 13 13 12 12 12 12 12 11 11 11 11 10 10 10 10 9 9 9 9 9 8 8 8 8 8 8 8 8
14 14 14 13 13 13 13 13 14 14 14 13 13 13 13 12 12 12 12 11 11 11 11 11 10 10 10 9 9 9 9 8 8 8 8 8 8 8 8 7 7 7 7
13 13 13 13 13 13 13 13 13 13 13 13 13 12 12 12 12 12 11 11 11 10 10 10 10 10 9 9 9 8 8 8 8 8 8 7 7 7 7 7 7 6 6
13 13 13 13 13 13 13 13 13 13 13 12 12 12 12 11 11 11 11 10 10 10 10 9 9 9 9 8 8 8 8 7 7 7 7 7 7 6 6 6 6 6 6
13 13 13 13 13 13 13 12 12 12 12 12 12 11 11 11 10 10 10 9 9 9 9 9 8 8 8 8 7 7 7 7 7 6 6 6 6 6 6 5 5 5 5
Wind_Speed
8 7 6 6 6 5 5 4 3 3 3 3 3 3 3 2 2 2 3 3 2 2 3 2 2 2 1 3 2 2 2 1 2 2 1 0 1 0 1 2 4 5 6
7 7 6 5 5 5 5 5 4 4 4 3 3 3 3 2 2 3 4 3 3 3 3 2 2 2 1 2 2 2 2 1 1 2 2 1 1 2 2 2 3 4 4
7 7 6 6 6 5 5 4 4 4 4 4 4 3 3 2 3 3 3 3 3 3 3 2 3 2 2 2 2 2 2 2 1 2 2 1 1 2 2 3 3 2 4
7 7 6 6 6 5 5 4 4 4 4 4 4 3 3 3 2 2 2 3 3 2 2 2 2 2 2 3 3 2 3 3 3 2 2 2 1 2 2 2 2 2 3
6 6 6 6 5 4 4 4 4 4 5 4 3 3 2 2 3 2 3 3 2 2 2 1 1 1 1 1 2 2 3 2 3 2 2 2 2 1 2 2 3 3 3
4 4 4 5 5 4 4 4 4 4 3 3 3 3 3 3 1 2 2 2 1 2 2 2 2 2 2 1 2 4 3 3 2 3 2 2 2 2 2 3 2 2 3
4 4 4 4 4 4 4 3 3 3 3 3 3 3 2 0 0 0 1 2 2 2 2 2 3 1 2 2 2 4 4 4 5 3 3 4 3 2 2 3 3 4 4
4 4 3 3 4 3 3 3 3 2 3 3 3 3 2 1 1 0 2 3 3 2 1 1 0 1 2 2 2 2 2 3 5 4 3 4 3 2 2 4 5 4 4
4 3 3 3 4 4 3 3 2 2 2 2 2 2 2 1 2 1 1 2 2 2 2 1 1 0 0 2 2 3 3 3 3 3 4 5 6 6 4 3 3 3 4
3 3 4 4 4 4 4 3 2 2 2 2 2 2 3 2 2 2 2 2 2 2 2 2 1 2 1 1 2 3 4 4 4 4 4 5 6 7 7 5 4 4 4
2 2 3 3 4 4 3 3 3 2 2 2 3 2 2 2 3 3 3 2 2 2 2 2 1 3 4 3 3 3 4 4 4 5 5 4 3 3 3 4 4 4 4
2 3 3 2 3 4 3 3 3 3 3 3 3 3 2 2 2 2 3 3 3 2 2 1 0 2 3 3 3 4 5 4 4 4 3 3 2 2 3 4 5 5 5
4 3 3 3 2 2 3 3 3 2 2 2 2 2 2 1 1 2 3 3 3 2 2 1 1 2 2 3 5 6 5 3 3 4 4 4 3 3 3 3 3 4 5
4 3 3 3 3 3 2 2 2 1 1 1 1 1 1 1 1 1 1 1 2 2 3 3 4 5 4 4 3 3 3 3 3 4 4 4 3 3 3 3 3 3 4
3 3 3 3 4 3 3 2 2 1 1 1 1 1 1 1 1 1 1 1 1 1 1 2 2 1 2 2 3 2 2 2 3 4 4 4 4 3 3 3 3 3 4
3 2 2 3 3 4 4 3 4 3 2 2 2 2 2 2 3 2 1 1 1 1 1 1 2 2 2 3 3 2 2 1 1 2 2 3 4 4 4 4 3 3 4
2 1 1 2 3 3 3 3 3 2 2 2 2 3 4 4 3 2 1 0 1 2 1 2 2 2 2 2 2 2 2 1 1 2 2 3 3 4 4 4 3 3 4
2 2 2 2 2 2 2 3 4 4 3 2 1 3 5 5 4 2 1 1 1 1 2 2 2 2 2 2 2 3 3 3 2 2 3 3 3 3 4 4 4 4 4
2 1 1 1 2 2 2 3 3 3 3 3 3 2 4 4 3 2 2 1 2 2 2 2 2 2 2 2 2 2 2 3 3 3 3 3 3 4 4 4 5 5 4
2 1 2 2 2 2 2 2 1 2 2 3 2 2 2 2 2 2 2 2 2 2 2 2 2 2 2 2 2 2 3 3 3 3 3 3 3 4 5 5 5 5 4
3 3 3 3 2 1 1 1 1 1 1 1 2 3 4 3 2 2 2 1 1 2 2 2 2 2 2 2 2 3 4 3 3 3 4 4 4 4 4 4 5 5 5
2 3 3 2 1 1 2 2 2 2 1 1 1 2 4 3 2 2 2 1 0 0 1 1 2 2 2 2 3 4 4 4 4 5 5 5 5 5 5 5 5 4 4
3 3 2 2 2 2 3 3 3 2 1 1 2 2 3 2 1 0 0 1 1 1 1 1 1 1 2 2 3 3 3 4 4 5 5 5 5 6 5 5 5 6 6
3 3 3 2 2 3 3 3 3 2 2 2 2 2 2 1 1 0 0 1 1 1 1 1 1 2 3 3 4 4 4 5 6 5 6 7 7 6 5 5 5 6 6
3 3 2 2 2 3 3 3 2 1 1 1 1 1 1 1 0 1 1 2 2 2 2 2 2 3 4 4 4 5 6 7 7 7 7 6 7 7 6 6 5 5 6
3 2 3 2 2 2 2 2 2 1 1 1 0 0 1 1 1 1 2 2 2 2 2 3 4 5 5 5 5 6 6 6 7 9 7 6 7 6 6 5 6 6 6
Wind_Direction
188 191 194 188 198 203 208 219 214 201 197 196 195 201 211 214 224 232 236 243 231 232 240 225 228 262 303 310 314 312 303 295 272 279 241 153 140 104 141 216 211 211 216
188 186 191 189 193 199 206 205 202 202 209 209 203 213 221 213 220 232 243 234 232 234 239 238 238 236 228 272 292 285 284 272 247 271 263 232 221 200 207 231 227 226 220
186 186 187 193 193 197 206 197 192 202 209 212 203 208 218 221 229 230 237 234 237 242 231 231 241 245 253 269 272 290 294 290 251 250 263 242 234 231 223 239 249 242 243
186 188 186 194 197 196 202 203 200 206 211 209 209 208 209 215 236 237 237 237 232 233 230 235 245 239 256 281 278 287 295 303 286 264 253 246 233 245 231 241 252 244 258
186 191 191 190 193 188 196 201 201 205 212 204 206 201 196 207 229 229 234 230 226 232 226 214 219 201 236 272 293 313 306 300 296 291 280 276 265 250 253 258 261 255 255
183 187 175 179 187 190 196 197 201 200 206 205 202 190 205 226 243 214 224 238 220 225 236 230 215 191 186 233 267 267 263 265 277 283 291 283 294 296 292 286 282 289 279
169 171 169 178 187 193 196 190 203 205 203 199 189 183 185 165 297 257 232 243 234 221 224 241 266 265 182 221 250 246 248 245 237 250 278 288 288 298 309 302 292 279 271
168 176 175 177 182 177 180 184 193 195 194 189 186 186 166 168 159 173 284 236 247 241 226 213 213 294 311 327 286 275 257 243 237 236 254 273 277 290 286 276 274 277 271
173 177 177 181 178 176 184 180 178 183 188 187 171 167 158 165 181 161 251 232 236 233 227 222 246 244 335 336 318 307 299 288 256 238 230 247 253 259 265 289 288 289 289
174 178 174 171 173 173 176 173 171 178 178 179 179 174 169 174 187 191 213 245 239 221 195 191 207 215 221 224 247 272 280 284 290 281 264 255 253 255 243 234 257 270 284
151 156 163 170 169 158 159 161 161 174 173 182 186 178 174 174 188 203 198 248 272 247 221 212 212 193 211 229 242 255 263 280 286 277 271 262 244 239 231 229 238 247 263
117 125 128 137 160 155 158 165 171 175 178 191 193 179 166 156 177 217 199 226 280 280 274 279 116 172 202 236 256 273 279 285 283 289 291 294 290 275 259 247 240 238 242
122 122 120 119 116 128 145 153 163 176 196 191 189 184 161 149 160 199 202 229 269 264 293 283 227 221 230 246 255 264 277 275 279 286 290 287 282 280 279 265 259 253 258
126 135 142 137 129 117 120 126 131 149 187 185 193 180 160 150 158 157 218 246 272 268 289 283 250 241 246 271 278 257 252 256 262 276 285 289 294 294 290 285 283 280 274
146 152 151 139 131 121 111 95 120 106 153 199 175 147 179 186 217 174 183 233 265 287 271 267 267 247 248 251 253 252 252 245 260 275 290 296 296 296 294 294 282 276 272
155 165 171 161 147 146 142 126 64 91 111 125 115 120 108 133 159 160 166 186 243 207 201 243 257 260 270 279 279 275 271 272 292 300 304 310 312 310 307 306 301 293 291
159 168 175 163 152 160 164 159 154 126 109 123 143 142 149 156 147 143 137 155 217 171 204 255 267 281 289 293 298 309 329 348 337 307 304 306 308 309 311 315 316 312 303
187 182 188 179 171 174 179 181 181 180 178 168 174 182 174 173 179 184 133 102 99 141 249 268 283 287 294 317 338 351 350 342 339 326 317 316 317 319 322 321 319 316 311
203 188 204 220 191 176 198 206 198 183 179 166 165 180 193 187 186 206 192 224 252 264 267 273 295 320 342 356 2 352 334 327 329 326 322 326 332 327 320 316 311 306 302
173 198 216 225 209 182 200 212 222 197 186 171 161 153 157 182 191 188 194 235 268 287 311 331 5 14 4 356 346 332 316 312 317 317 325 323 312 307 308 307 308 308 301
192 191 207 222 201 191 222 226 233 234 194 199 165 154 166 200 202 193 181 212 267 304 345 351 359 359 356 340 341 339 332 336 342 338 329 320 315 306 301 305 309 308 308
221 207 214 226 216 234 253 246 227 210 213 190 140 166 186 211 202 195 217 206 161 347 3 350 346 1 3 351 353 351 349 355 353 345 335 328 325 318 312 307 305 308 311
234 222 217 223 224 224 242 253 249 237 236 207 207 207 202 223 232 229 50 57 47 25 22 357 341 5 19 7 11 21 11 352 337 332 327 322 320 314 308 309 314 315 312
242 236 235 233 232 240 249 252 249 232 220 225 226 219 212 206 211 189 39 42 29 10 9 12 22 27 32 21 19 25 22 4 346 336 329 316 313 310 309 309 310 311 311
238 239 244 247 244 248 253 254 258 241 236 236 215 245 254 213 174 111 64 56 31 20 13 15 20 21 25 17 21 25 25 16 6 350 327 315 309 307 306 305 304 306 308
237 243 241 239 235 238 249 248 242 243 251 242 187 53 337 358 36 70 74 61 42 34 30 33 43 39 29 25 41 48 39 20 2 348 330 311 307 307 310 307 306 303 302
Height
1518 1520 1521 1522 1524 1525 1525 1526 1527 1527 1528 1528 1528 1528 1528 1527 1527 1527 1526 1526 1526 1526 1527 1527 1527 1527 1528 1528 1529 1529 1529 1529 1529 1529 1529 1529 1528 1528 1528 1527 1526 1526 1525
1516 1517 1519 1520 1521 1522 1523 1523 1524 1525 1525 1526 1526 1526 1526 1525 1525 1524 1523 1523 1524 1524 1524 1525 1525 1525 1525 1526 1526 1527 1527 1527 1527 1526 1526 1526 1526 1525 1525 1525 1524 1523 1523
1514 1515 1516 1517 1518 1519 1520 1521 1521 1522 1523 1523 1523 1523 1523 1523 1522 1522 1521 1521 1521 1522 1522 1522 1523 1523 1523 1524 1524 1524 1524 1525 1524 1524 1523 1523 1523 1523 1523 1522 1522 1521 1521
1511 1512 1513 1514 1515 1516 1517 1518 1519 1520 1520 1520 1520 1520 1520 1520 1520 1520 1519 1519 1519 1519 1519 1520 1520 1521 1521 1521 1522 1522 1522 1522 1522 1522 1521 1521 1521 1521 1520 1520 1519 1519 1518
1508 1509 1510 1511 1513 1514 1515 1516 1516 1517 1517 1517 1518 1518 1518 1518 1518 1517 1517 1517 1517 1517 1517 1517 1518 1518 1518 1519 1519 1519 1519 1519 1520 1519 1519 1519 1518 1518 1518 1517 1517 1516 1516
1505 1506 1507 1508 1509 1511 1512 1513 1513 1514 1514 1515 1515 1515 1515 1516 1516 1515 1515 1515 1515 1515 1515 1515 1515 1516 1516 1516 1516 1516 1517 1517 1517 1517 1517 1516 1516 1515 1515 1515 1515 1514 1513
1502 1503 1504 1505 1506 1507 1509 1510 1510 1511 1512 1512 1513 1513 1513 1513 1513 1513 1513 1513 1513 1513 1513 1513 1513 1514 1513 1513 1513 1513 1513 1514 1514 1514 1514 1513 1513 1513 1512 1512 1512 1511 1511
1499 1500 1501 1502 1503 1504 1505 1506 1507 1508 1509 1509 1510 1510 1510 1510 1511 1511 1511 1511 1511 1511 1511 1511 1511 1511 1510 1511 1510 1510 1510 1510 1510 1510 1510 1510 1510 1510 1509 1509 1508 1508 1507
1495 1496 1498 1499 1500 1501 1502 1503 1504 1505 1506 1507 1507 1507 1507 1507 1508 1508 1508 1508 1509 1509 1509 1509 1509 1509 1508 1508 1508 1508 1507 1507 1507 1507 1507 1507 1506 1506 1506 1506 1505 1504 1503
1492 1494 1495 1496 1497 1497 1498 1500 1501 1502 1503 1504 1504 1505 1505 1505 1505 1506 1506 1506 1506 1506 1507 1507 1507 1507 1506 1506 1506 1505 1504 1504 1504 1504 1504 1503 1503 1503 1503 1502 1502 1501 1500
1490 1491 1492 1493 1494 1495 1496 1497 1499 1500 1501 1502 1502 1503 1503 1503 1503 1504 1504 1504 1504 1504 1504 1504 1505 1504 1504 1504 1503 1502 1502 1501 1501 1501 1500 1500 1500 1499 1499 1499 1498 1498 1497
1488 1489 1489 1490 1492 1492 1493 1495 1496 1497 1498 1499 1500 1500 1501 1501 1501 1501 1502 1502 1502 1502 1502 1503 1503 1502 1502 1501 1501 1500 1500 1499 1498 1498 1497 1497 1497 1496 1495 1495 1494 1494 1493
1486 1486 1487 1488 1489 1490 1491 1492 1493 1495 1496 1497 1498 1498 1498 1499 1499 1499 1499 1500 1500 1500 1500 1500 1500 1500 1500 1499 1498 1498 1497 1496 1495 1495 1494 1494 1494 1493 1493 1492 1491 1490 1489
1484 1485 1486 1487 1488 1489 1490 1491 1492 1493 1494 1495 1496 1496 1497 1497 1497 1497 1497 1497 1498 1498 1498 1498 1498 1498 1497 1497 1496 1495 1495 1494 1493 1493 1492 1491 1491 1490 1489 1488 1487 1486 1485
1483 1484 1485 1486 1486 1487 1488 1489 1491 1492 1493 1494 1494 1494 1495 1494 1495 1495 1495 1496 1496 1496 1496 1496 1495 1495 1495 1494 1494 1493 1492 1491 1491 1490 1489 1488 1487 1486 1485 1484 1483 1482 1481
1482 1483 1484 1485 1485 1486 1487 1488 1489 1490 1491 1492 1493 1493 1493 1493 1493 1493 1494 1494 1494 1494 1494 1493 1493 1493 1493 1492 1492 1491 1490 1489 1488 1488 1487 1485 1484 1483 1481 1480 1479 1478 1477
1481 1482 1483 1483 1483 1485 1486 1486 1488 1489 1489 1490 1491 1491 1491 1491 1492 1492 1492 1492 1492 1492 1492 1491 1491 1491 1491 1491 1491 1490 1488 1487 1486 1485 1484 1482 1481 1479 1478 1476 1475 1474 1473
1480 1482 1482 1483 1483 1484 1485 1486 1487 1487 1487 1488 1489 1489 1489 1490 1490 1490 1490 1490 1490 1490 1490 1490 1490 1490 1490 1489 1488 1487 1486 1485 1484 1483 1481 1480 1478 1477 1475 1473 1472 1471 1469
1479 1480 1481 1482 1482 1483 1484 1485 1485 1485 1486 1486 1486 1487 1488 1488 1488 1489 1488 1488 1488 1488 1488 1488 1488 1488 1487 1486 1485 1484 1484 1483 1482 1480 1479 1477 1475 1474 1472 1470 1469 1467 1466
1478 1479 1479 1481 1481 1482 1482 1483 1484 1484 1484 1484 1485 1485 1485 1486 1486 1486 1486 1486 1486 1487 1487 1486 1486 1485 1485 1484 1483 1482 1481 1480 1478 1477 1476 1474 1473 1471 1469 1468 1466 1464 1463
1476 1477 1478 1479 1480 1480 1481 1482 1482 1483 1483 1483 1483 1483 1483 1484 1485 1485 1485 1484 1484 1484 1484 1483 1483 1483 1482 1481 1480 1478 1478 1476 1475 1474 1472 1471 1469 1468 1466 1465 1463 1461 1459
1475 1476 1477 1477 1478 1478 1479 1479 1480 1480 1481 1481 1481 1481 1482 1482 1482 1483 1483 1483 1482 1482 1481 1481 1480 1480 1479 1478 1476 1475 1474 1473 1471 1470 1468 1467 1466 1464 1463 1461 1459 1457 1455
1474 1474 1475 1475 1476 1476 1476 1477 1478 1478 1479 1479 1479 1480 1480 1480 1480 1481 1481 1480 1479 1479 1478 1477 1477 1476 1475 1474 1473 1472 1470 1469 1468 1466 1465 1463 1461 1460 1459 1457 1455 1453 1452
1472 1471 1472 1473 1474 1474 1475 1475 1476 1476 1477 1477 1478 1478 1478 1478 1478 1478 1478 1478 1477 1476 1476 1475 1474 1473 1471 1470 1469 1468 1466 1465 1464 1462 1460 1459 1457 1456 1454 1453 1451 1450 1448
1470 1470 1470 1471 1471 1472 1472 1473 1473 1474 1474 1475 1475 1476 1476 1476 1475 1475 1475 1474 1473 1473 1473 1472 1471 1469 1467 1466 1465 1464 1462 1461 1459 1457 1456 1454 1453 1451 1449 1448 1447 1445 1444
1468 1468 1468 1468 1468 1469 1470 1470 1471 1472 1473 1473 1473 1473 1474 1473 1473 1472 1471 1471 1471 1470 1469 1468 1467 1466 1464 1463 1461 1459 1457 1456 1454 1453 1451 1450 1448 1447 1445 1444 1442 1441 1439